Regional Weather Roundup
Issued by NWS

Home | Current Version | Previous Version | Graphics & Text | Print | Product List | Glossary Off
Versions: 1 2 3 4 5 6 7 8 9 10 11 12 13 14 15 16 17 18 19 20 21 22 23 24 25 26 27 28 29 30 31 32 33 34 35 36 37 38 39 40 41 42 43 44 45 46 47 48 49 50

905
ASUS43 KMKX 192121
RWRWI

WISCONSIN REGIONAL WEATHER ROUNDUP
NATIONAL WEATHER SERVICE MILWAUKEE/SULLIVAN WI
300 PM CST THU JAN 19 2017

NOTE: "FAIR" INDICATES FEW OR NO CLOUDS BELOW 12,000 FEET WITH NO
SIGNIFICANT WEATHER AND/OR OBSTRUCTIONS TO VISIBILITY.

WIZ001-002-006>008-014>016-023>028-192200-
NORTHWEST WISCONSIN

CITY           SKY/WX    TMP DP  RH WIND       PRES   REMARKS
SUPERIOR ARPT  SUNNY     42  33  69 E6        29.73R
ASHLAND        SUNNY     47  36  65 S10       29.75R
HAYWARD        SUNNY     42  33  70 SE6       29.76S
SIREN          SUNNY     45  33  62 S7        29.74S
CUMBERLAND     SUNNY     37  32  81 SE7       29.75F WCI  32
RICE LAKE      MOSUNNY   36  33  90 SE9       29.79S FOG     WCI  29
CHETEK         MOSUNNY   37  34  89 SE8       29.78F WCI  30
LADYSMITH      SUNNY     39  33  78 S3        29.80F
EAU CLAIRE     PTSUNNY   40  32  73 SE6       29.77F
MENOMONIE        N/A    N/A N/A N/A MISG        N/A
NEW RICHMOND   PTSUNNY   37  31  82 S6        29.77S WCI  32
OSCEOLA        SUNNY     40  32  75 SE7       29.79R WCI  35
$$

WIZ003>005-009-010-017-018-192200-
NORTH CENTRAL WISCONSIN

CITY           SKY/WX    TMP DP  RH WIND       PRES   REMARKS
MANITOWISH WTR SUNNY     43  34  71 S7        29.77R
ARBOR VITAE    SUNNY     42  35  76 S8        29.79R
WOODRUFF       SUNNY     42  35  76 S8        29.79R
RHINELANDER    SUNNY     41  34  76 SW9       29.81R
EAGLE RIVER    SUNNY     47  34  59 SW5       29.79R
LAND O LAKES   SUNNY     49  36  61 SW5       29.78S
PHILLIPS       SUNNY     43  33  67 S7        29.77S
TOMAHAWK       SUNNY     37  32  83 S3        29.82S
MEDFORD        CLOUDY    32  31  97 E3        29.80F FOG
MERRILL        CLOUDY    33  33 100 CALM        N/A  FOG
$$

WIZ029-030-035-036-043>047-192200-
CENTRAL WISCONSIN

CITY           SKY/WX    TMP DP  RH WIND       PRES   REMARKS
WAUSAU         MOSUNNY   36  33  89 MISG      29.82F
MOSINEE        MOSUNNY   34  34 100 S3        29.84S FOG
MARSHFIELD     PTSUNNY   34  32  92 E6        29.81R FOG     WCI  29
STEVENS POINT  CLOUDY    32  32 100 SE3       29.85S FOG
WAUPACA        CLOUDY    35  32  90 CALM      29.87R FOG
WAUTOMA        MOSUNNY   35  31  85 S6        29.88R WCI  30
WISC RAPIDS    SUNNY     39  33  79 SE6       29.84F WCI  35
CAMP DOUGLAS   PTSUNNY   37  32  81 SE5       29.84S WCI  34
$$

WIZ011>013-019>022-031-037>040-048>050-192200-
NORTHEAST WISCONSIN

CITY           SKY/WX    TMP DP  RH WIND       PRES   REMARKS
ANTIGO         CLOUDY    32  32 100 S3        29.83S FOG
SHAWANO        CLOUDY    35  33  90 S3        29.88S FOG
OCONTO         CLOUDY    33  32  95 SW5       29.88R WCI  29
STURGEON BAY   CLOUDY    34  32  92 S9        29.89R FOG     WCI  27
GREEN BAY      FOG       34  34 100 S3        29.88F VSB 1
MANITOWOC      CLOUDY    34  33  96 MISG      29.90S FOG
APPLETON       FOG       32  32 100 S6        29.86F VSB 1/2 WCI  26
CLINTONVILLE   FOG       32  32 100 SE3       29.87S VSB 1
OSHKOSH        CLOUDY    34  31  88 S7        29.88S FOG     WCI  28
$$

WIZ032>034-041-042-053>061-192200-
SOUTHWEST WISCONSIN

CITY           SKY/WX    TMP DP  RH WIND       PRES   REMARKS
LA CROSSE      CLOUDY    38  33  82 S5        29.82F WCI  34
SPARTA         PTSUNNY   40  33  77 CALM      29.85R
VIROQUA        CLOUDY    35  34  98 E7        29.81F WCI  29
BOSCOBEL       CLOUDY    39  33  79 NE3       29.83F
PRAIRIE DU CHI LGT RAIN  37  33  86 SE3       29.83R
PLATTEVILLE    CLOUDY    36  36 100 E12       29.82F WCI  28
$$

WIZ056-057-062-063-064-067-068-192200-
SOUTH CENTRAL WISCONSIN

CITY           SKY/WX    TMP DP  RH WIND       PRES   REMARKS
REEDSBURG      CLOUDY    35  35  99 CALM      29.84
BARABOO/DELLS  CLOUDY    36  34  90 CALM      29.85S
LONE ROCK      CLOUDY    38  34  85 E6        29.85F FOG     WCI  33
MINERAL POINT  LGT RAIN  37  37 100 E6        29.82F WCI  33
MADISON        CLOUDY    36  33  89 SE9       29.87F FOG     WCI  29
MIDDLETON      CLOUDY    37  37 100 SE8       29.86F WCI  31
WATERTOWN      CLOUDY    36  36 100 S3        29.88R FOG
MONROE         FOG       34  34 100 E5        29.84F VSB<1/4 WCI  30
JANESVILLE     CLOUDY    37  37 100 SE5       29.87F FOG     WCI  34
$$

WIZ051-052-058>065-066-070>072-192200-
SOUTHEAST WISCONSIN

CITY           SKY/WX    TMP DP  RH WIND       PRES   REMARKS
MILWAUKEE      CLOUDY    37  34  89 SE6       29.90F FOG     WCI  32
WAUKESHA       MOSUNNY   36  34  93 SE5       29.90F FOG     WCI  32
MILWAUKEE/TIMM SUNNY     37  32  81 E3        29.91S HAZE
RACINE         FOG       35  33  92 S10       29.91S VSB 1/2 WCI  27
KENOSHA        MOSUNNY   38  35  89 SE7       29.89F FOG     WCI  33
FOND DU LAC    CLOUDY    35  32  88 S7        29.87F FOG     WCI  29
SHEBOYGAN      FOG       32  32 100 S8        29.90S VSB 1/2 WCI  25
WEST BEND      FOG       34  34 100 CALM      29.88F VSB 1
JUNEAU         FOG       34  33  99 SE5       29.88F VSB 1   WCI  30
$$

LSZ147-162-192200-
LAKE SUPERIOR

STATION/POSITION TIME  TEMP    WIND        PRES    WAVE
                       AIR SEA DIR/SP/G            HT/PER
                 (UTC) (F)     (DEG/KT/KT) (MB)    (FT/S)
DEVILS ISLAND    2100   36      80/  8/  8 1007.8R
PORT WING        2040   36      30/ 11/ 11 1007.1R
SAXON HARBOR     2100          230/  3/ 12 1006.8
$$

LMZ867-665-643>646-192200-
LAKE MICHIGAN

STATION/POSITION TIME  TEMP    WIND        PRES    WAVE
                       AIR SEA DIR/SP/G            HT/PER
                 (UTC) (F)     (DEG/KT/KT) (MB)    (FT/S)
NORTHPORT PIER   2040   34     190/  3/  7 1012.2R
SISTER BAY       2050   35     240/  8/  9   N/A
KEWAUNEE LAKESHO 2054   33     200/  9/ 14 1011.8S
SHEBOYGAN LAKESH 2100   33     180/ 14/ 15 1012.8F
PORT WASHINGTON  2040   34     150/  5/  7 1013.5F
MILWAUKEE LAKESH 2100   33     140/  8/  9   N/A
KENOSHA   LAKESH 2100   33     160/  6/  9 1012.9
$$

TC  - TEMPERATURE IN CELSIUS
VSB - VISIBILITY IN STATUTE MILES
WCI - WIND CHILL INDEX
HX  - HEAT INDEX





USA.gov is the U.S. government's official web portal to all federal, state and local government web resources and services.